Location: Gouy
(50.0008°N, 3.2556°E)
Time: 01:36:12
(UTC+00:00)

Cosmos 1782 Rocket - Pass Details

Date: 22 August 2024
Orbit: 603 x 628 km, 82.5° (Epoch: 11 September)

Event Time Altitude Azimuth Distance (km) Brightness Sun altitude
Exits shadow 03:25:58 15° 205° (SSW) 1,719 5.3 -12.4°
Maximum altitude 03:29:38 60° 283° (WNW) 726 3.7 -12.0°
Drops below altitude 10° 03:34:04 10° 4° (N) 2,019 6.7 -11.4°
Sets 03:36:21 0° 8° (N) 2,931 7.7 -11.1°
